Starlink 1215

operational
NORAD ID: 45225 Int'l Des: 2020-012 Owner: SPXS Country: US Constellation: starlink
LEOCIRCULAR

About Starlink 1215

Description loading...

Live Position

Loading 3D Globe...

Upcoming Passes

Altitude History

Altitude vs Time

uPlot chart will show altitude changes over time

Two-Line Element Set

1 45225U 20012AZ 26071.00703544 -.00000572 00000-0 -71868-5 0 9993
2 45225 53.1609 347.5410 0001366 81.4612 278.6544 15.30180599335835
Epoch: Mar 12, 2026 • Age: 25 hours

Current Status

Altitude 478.9 km
Velocity 7.63 km/s
Sub-Earth Point -13.03°S, 144.4°E
Launch Date Feb 17, 2020
Age 6 years
Type internet

Technical Details

Classification Payload
Mass 260.00 kg
Dry Mass 248.00 kg
Total Mass 260.00 kg
Length 0.20 m
Diameter 2.80 m
Span 9.00 m
Shape Box + pan
Manufacturer SPXS
Bus Type Starlink
Phase Status In Orbit
Owner/State SPXS/US

Large Constellations

Loading constellations...